This is the latest recevied weather packets stored in our database for station/object K5NWZ. If no packets are shown the sender has not sent any weather packets the latest 10 day(s).
| Time | Temp. | Humidity | Pressure | Rain* | Wind** | Luminosity | Snow |
|---|---|---|---|---|---|---|---|
| 1777514337 | 10.56° C | 49% | 1028.3 hPa | 0 mm | - | 0 W/m² | - |
| 1777514033 | 10.56° C | 49% | 1028.3 hPa | 0 mm | - | 1 W/m² | - |
| 1777513730 | 11.11° C | 48% | 1028.1 hPa | 0 mm | - | 1 W/m² | - |
| 1777513427 | 11.67° C | 46% | 1028.1 hPa | 0 mm | - | 2 W/m² | - |
| 1777513123 | 11.67° C | 42% | 1028.1 hPa | 0 mm | - | 2 W/m² | - |
| 1777512819 | 12.22° C | 41% | 1028 hPa | 0 mm | - | 2 W/m² | - |
| 1777512516 | 12.22° C | 42% | 1027.7 hPa | 0 mm | - | 3 W/m² | - |
| 1777512213 | 12.22° C | 41% | 1027.5 hPa | 0 mm | - | 4 W/m² | - |
| 1777511910 | 12.22° C | 40% | 1027.5 hPa | 0 mm | - | 4 W/m² | - |
| 1777511608 | 12.78° C | 38% | 1027.5 hPa | 0 mm | - | 5 W/m² | - |
| 1777511306 | 12.78° C | 38% | 1027.2 hPa | 0 mm | - | 7 W/m² | - |
| 1777511001 | 12.78° C | 38% | 1027.2 hPa | 0 mm | - | 10 W/m² | - |
| 1777510698 | 12.78° C | 38% | 1027 hPa | 0 mm | - | 13 W/m² | - |
| 1777510394 | 12.78° C | 38% | 1026.9 hPa | 0 mm | - | 16 W/m² | - |
| 1777510090 | 12.78° C | 37% | 1026.8 hPa | 0 mm | - | 13 W/m² | - |
| 1777509788 | 12.78° C | 37% | 1026.8 hPa | 0 mm | - | 12 W/m² | - |
| 1777509482 | 12.78° C | 36% | 1026.6 hPa | 0 mm | - | 19 W/m² | - |
| 1777509181 | 12.78° C | 36% | 1026.5 hPa | 0 mm | - | 25 W/m² | - |
| 1777508877 | 13.33° C | 36% | 1026.7 hPa | 0 mm | - | 30 W/m² | - |
| 1777508574 | 13.33° C | 36% | 1026.7 hPa | 0 mm | - | 31 W/m² | - |
| 1777508271 | 13.33° C | 36% | 1026.5 hPa | 0 mm | - | 42 W/m² | - |
| 1777507968 | 13.33° C | 36% | 1026.3 hPa | 0 mm | - | 57 W/m² | - |
| 1777507664 | 13.89° C | 35% | 1026.6 hPa | 0 mm | - | 87 W/m² | - |
| 1777507362 | 13.89° C | 35% | 1026.2 hPa | 0 mm | - | 141 W/m² | - |
| 1777507059 | 13.33° C | 36% | 1026.1 hPa | 0 mm | - | 149 W/m² | - |
* Rain latest hour (hover to see other rain measurements)
** Current wind speed in m/s (hover to see current wind gust speed)